sat.trackr.live / text

‹ back to catalog

STARLINK-11600 [DTC]

NORAD 63114 · 2025-039L

PAYLOAD ACTIVE UNKNOWN

§ Identity

Operator
Country
US
Launch date
2025-02-27
Launch site
AFETR
Launch vehicle
Mass (kg)
RCS (m²)

Purposes: comms

External: N2YO · Heavens-Above · Gunter

§ Orbital elements

Epoch: 2026-05-25T02:15:08.048160Z

Period
91.67 min
Inclination
43.0005°
Eccentricity
0.0001728
Mean motion
15.70830958 rev/d
Perigee alt
355.4 km
Apogee alt
357.7 km
Semi-major
6,734.7 km
B*
1.2443e-3
RAAN
136.1466°
Arg perigee
267.6743°
Mean anomaly
92.3927°
Rev number
7,163

§ Raw data

STARLINK-11600 [DTC]1 63114U 25039L   26145.09384315  .00162310  00000+0  12443-2 0  99932 63114  43.0005 136.1466 0001728 267.6743  92.3927 15.70830958 71634

JSON: /api/v1/satellites/63114 · /tle

For live sub-satellite position, see the globe view (requires WebGL).

§ Visibility from observer

Set your observer location to see the next 7 days of passes ≥ 10°. The values pass through the URL so the page stays shareable.

No JS? Fill the form by hand. The geolocation button needs JavaScript.